Torna al catalogo

STARLINK-31361

AttivoComunicazioniVLEO
NORAD 58974·PAYLOAD·🇺🇸 United States

Lanciato Feb 15, 2024 da Vandenberg Space Force Base

Loading…

Prossimi Passaggi (prossime 24 ore)

TLE

AggiornatoSource: CelesTrak SupGP

Epoca: Sep 14, 2026, 21:01 UTC

1 58974C 24031K   26257.87618056 -.00043999  00000+0 -13000-2 0  2574
2 58974  53.1567 135.8178 0001424  79.7998  93.5498 15.34411452    14

Traccia STARLINK-31361 in tempo reale con AllMySat

Download on the App Store